When you browse on this site, cookies collect data to enhance your experience and personalize the content and advertising you see.
Visit our Privacy Policy to learn more. By continuing to use the site, you agree to this use of cookies and data.
  • In Austria
  • List of Countries
  • For 7 days
  • Water Temperature
  • Satellite Maps
  • Weather Map
  • News
  • Weather Widgets
  • user-avatar
    Login

    Hourly Weather Namibe

    Today, 21 November, Wednesday

    Time Temperature Precipitation Wind Pressure Humidity
    00:00 +29°C° 0 mm 3 mps 757 mmHg 58%
    01:00 +28°C° 0 mm 3 mps 757 mmHg 59%
    02:00 +28°C° 0 mm 2 mps 757 mmHg 62%
    03:00 +28°C° 0 mm 2 mps 757 mmHg 64%
    04:00 +27°C° 0 mm 2 mps 757 mmHg 67%
    05:00 +27°C° 0 mm 2 mps 757 mmHg 67%
    06:00 +27°C° 0 mm 2 mps 757 mmHg 66%
    07:00 +28°C° 0 mm 2 mps 758 mmHg 66%
    08:00 +30°C° 0 mm 2 mps 757 mmHg 59%
    09:00 +33°C° 0 mm 3 mps 757 mmHg 51%
    10:00 +35°C° 0 mm 3 mps 757 mmHg 44%
    11:00 +35°C° 0 mm 4 mps 757 mmHg 44%
    12:00 +36°C° 0 mm 4 mps 757 mmHg 44%
    13:00 +36°C° 0 mm 5 mps 756 mmHg 44%
    14:00 +35°C° 0 mm 5 mps 756 mmHg 46%
    15:00 +35°C° 0 mm 5 mps 756 mmHg 47%
    16:00 +34°C° 0 mm 6 mps 756 mmHg 49%
    17:00 +32°C° 0 mm 5 mps 756 mmHg 56%
    18:00 +29°C° 0 mm 4 mps 757 mmHg 63%
    19:00 +28°C° 0 mm 3 mps 757 mmHg 70%
    20:00 +28°C° 0 mm 3 mps 758 mmHg 71%
    21:00 +27°C° 0 mm 3 mps 758 mmHg 73%
    22:00 +27°C° 0 mm 2 mps 759 mmHg 74%
    23:00 +27°C° 0 mm 2 mps 759 mmHg 74%

    Tomorrow, 22 November, Thursday

    Time Temperature Precipitation Wind Pressure Humidity
    00:00 +27°C° 0 mm 2 mps 759 mmHg 75%
    01:00 +27°C° 0 mm 2 mps 758 mmHg 75%
    02:00 +27°C° 0 mm 2 mps 758 mmHg 76%
    03:00 +27°C° 0 mm 2 mps 758 mmHg 78%
    04:00 +27°C° 0 mm 2 mps 757 mmHg 79%
    05:00 +27°C° 0 mm 2 mps 758 mmHg 79%
    06:00 +27°C° 0 mm 1 mps 758 mmHg 79%
    07:00 +27°C° 0 mm 1 mps 758 mmHg 79%
    08:00 +29°C° 0 mm 2 mps 758 mmHg 70%
    09:00 +31°C° 0 mm 2 mps 758 mmHg 62%
    10:00 +34°C° 0 mm 3 mps 758 mmHg 54%
    11:00 +35°C° 0 mm 4 mps 757 mmHg 52%
    12:00 +35°C° 0 mm 5 mps 757 mmHg 49%
    13:00 +36°C° 0 mm 6 mps 756 mmHg 47%
    14:00 +35°C° 0 mm 6 mps 756 mmHg 50%
    15:00 +34°C° 0 mm 6 mps 756 mmHg 52%
    16:00 +33°C° 0 mm 6 mps 755 mmHg 55%
    17:00 +32°C° 0 mm 5 mps 756 mmHg 60%
    18:00 +29°C° 0 mm 5 mps 756 mmHg 66%
    19:00 +28°C° 0 mm 4 mps 757 mmHg 72%
    20:00 +28°C° 0 mm 4 mps 757 mmHg 72%
    21:00 +28°C° 0 mm 3 mps 758 mmHg 73%
    22:00 +27°C° 0 mm 2 mps 759 mmHg 74%
    23:00 +27°C° 0 mm 2 mps 758 mmHg 75%

    Day after tomorrow, 23 November, Friday

    Time Temperature Precipitation Wind Pressure Humidity
    00:00 +27°C° 0 mm 2 mps 758 mmHg 75%
    01:00 +27°C° 0 mm 2 mps 757 mmHg 76%
    02:00 +27°C° 0 mm 2 mps 757 mmHg 76%
    03:00 +27°C° 0 mm 1 mps 757 mmHg 77%
    04:00 +27°C° 0 mm 1 mps 757 mmHg 78%
    05:00 +27°C° 0 mm 1 mps 757 mmHg 76%
    06:00 +27°C° 0 mm 1 mps 757 mmHg 75%
    07:00 +28°C° 0 mm 2 mps 758 mmHg 73%
    08:00 +29°C° 0 mm 2 mps 758 mmHg 67%
    09:00 +31°C° 0 mm 3 mps 758 mmHg 60%
    10:00 +34°C° 0 mm 3 mps 758 mmHg 53%
    11:00 +34°C° 0 mm 4 mps 757 mmHg 52%
    12:00 +35°C° 0 mm 5 mps 757 mmHg 50%
    13:00 +35°C° 0 mm 6 mps 756 mmHg 48%
    14:00 +35°C° 0 mm 6 mps 756 mmHg 49%
    15:00 +34°C° 0 mm 6 mps 755 mmHg 50%
    16:00 +33°C° 0 mm 6 mps 755 mmHg 51%
    17:00 +32°C° 0 mm 6 mps 755 mmHg 56%
    18:00 +30°C° 0 mm 6 mps 756 mmHg 61%
    19:00 +28°C° 0 mm 5 mps 756 mmHg 65%
    20:00 +28°C° 0 mm 5 mps 757 mmHg 65%
    21:00 +28°C° 0 mm 4 mps 758 mmHg 65%
    22:00 +28°C° 0 mm 3 mps 758 mmHg 65%
    23:00 +28°C° 0 mm 3 mps 758 mmHg 65%

    24 November, Saturday

    Time Temperature Precipitation Wind Pressure Humidity
    00:00 +27°C° 0 mm 3 mps 758 mmHg 65%
    01:00 +27°C° 0 mm 3 mps 757 mmHg 66%
    02:00 +27°C° 0 mm 2 mps 757 mmHg 67%
    03:00 +27°C° 0 mm 2 mps 757 mmHg 68%
    04:00 +27°C° 0 mm 2 mps 757 mmHg 69%
    05:00 +27°C° 0 mm 2 mps 757 mmHg 68%
    06:00 +27°C° 0 mm 2 mps 758 mmHg 68%
    07:00 +27°C° 0 mm 2 mps 758 mmHg 67%
    08:00 +29°C° 0 mm 2 mps 758 mmHg 60%
    09:00 +31°C° 0 mm 3 mps 758 mmHg 52%
    10:00 +34°C° 0 mm 4 mps 758 mmHg 45%
    11:00 +35°C° 0 mm 4 mps 757 mmHg 43%
    12:00 +36°C° 0 mm 5 mps 756 mmHg 42%
    13:00 +36°C° 0 mm 5 mps 756 mmHg 41%
    14:00 +35°C° 0 mm 5 mps 755 mmHg 42%
    15:00 +34°C° 0 mm 6 mps 755 mmHg 44%
    16:00 +34°C° 0 mm 6 mps 755 mmHg 46%
    17:00 +32°C° 0 mm 6 mps 755 mmHg 52%
    18:00 +29°C° 0 mm 5 mps 756 mmHg 58%
    19:00 +28°C° 0 mm 5 mps 757 mmHg 64%
    20:00 +27°C° 0 mm 4 mps 758 mmHg 66%
    21:00 +27°C° 0 mm 4 mps 758 mmHg 67%
    22:00 +26°C° 0 mm 3 mps 759 mmHg 69%
    23:00 +26°C° 0 mm 3 mps 758 mmHg 68%

    25 November, Sunday

    Time Temperature Precipitation Wind Pressure Humidity
    00:00 +26°C° 0 mm 3 mps 758 mmHg 68%
    01:00 +26°C° 0 mm 3 mps 758 mmHg 68%
    02:00 +26°C° 0 mm 3 mps 758 mmHg 68%
    03:00 +25°C° 0 mm 3 mps 757 mmHg 69%
    04:00 +25°C° 0 mm 3 mps 757 mmHg 70%
    05:00 +25°C° 0 mm 2 mps 757 mmHg 68%
    06:00 +26°C° 0 mm 2 mps 758 mmHg 66%
    07:00 +26°C° 0 mm 2 mps 758 mmHg 64%
    08:00 +28°C° 0 mm 2 mps 758 mmHg 53%
    09:00 +30°C° 0 mm 3 mps 758 mmHg 42%
    10:00 +34°C° 0 mm 3 mps 758 mmHg 31%
    11:00 +35°C° 0 mm 4 mps 757 mmHg 29%
    12:00 +36°C° 0 mm 5 mps 757 mmHg 27%
    13:00 +38°C° 0 mm 6 mps 756 mmHg 25%
    14:00 +36°C° 0 mm 6 mps 756 mmHg 27%
    15:00 +35°C° 0 mm 6 mps 755 mmHg 30%
    16:00 +34°C° 0 mm 6 mps 755 mmHg 32%
    17:00 +32°C° 0 mm 6 mps 755 mmHg 41%
    18:00 +30°C° 0 mm 5 mps 756 mmHg 49%
    19:00 +28°C° 0 mm 5 mps 756 mmHg 57%
    20:00 +27°C° 0 mm 5 mps 757 mmHg 60%
    21:00 +27°C° 0 mm 4 mps 757 mmHg 63%
    22:00 +26°C° 0 mm 4 mps 758 mmHg 66%
    23:00 +26°C° 0 mm 4 mps 757 mmHg 66%

    26 November, Monday

    Time Temperature Precipitation Wind Pressure Humidity
    00:00 +25°C° 0 mm 4 mps 757 mmHg 67%
    01:00 +25°C° 0 mm 3 mps 756 mmHg 67%
    02:00 +25°C° 0 mm 3 mps 756 mmHg 67%
    03:00 +25°C° 0 mm 3 mps 756 mmHg 66%
    04:00 +25°C° 0 mm 2 mps 756 mmHg 66%
    05:00 +25°C° 0 mm 2 mps 756 mmHg 65%
    06:00 +26°C° 0 mm 2 mps 756 mmHg 64%
    07:00 +26°C° 0 mm 2 mps 757 mmHg 63%
    08:00 +28°C° 0 mm 2 mps 757 mmHg 56%
    09:00 +30°C° 0 mm 3 mps 757 mmHg 48%
    10:00 +31°C° 0 mm 3 mps 756 mmHg 41%
    11:00 +33°C° 0 mm 4 mps 756 mmHg 39%
    12:00 +34°C° 0 mm 5 mps 755 mmHg 37%
    13:00 +35°C° 0 mm 5 mps 754 mmHg 35%
    14:00 +35°C° 0 mm 5 mps 754 mmHg 38%
    15:00 +34°C° 0 mm 5 mps 754 mmHg 41%
    16:00 +33°C° 0 mm 5 mps 754 mmHg 44%
    17:00 +30°C° 0 mm 5 mps 754 mmHg 50%
    18:00 +29°C° 0 mm 4 mps 755 mmHg 55%
    19:00 +28°C° 0 mm 4 mps 756 mmHg 61%
    20:00 +27°C° 0 mm 3 mps 756 mmHg 63%
    21:00 +27°C° 0 mm 3 mps 756 mmHg 65%
    22:00 +27°C° 0 mm 3 mps 757 mmHg 67%
    23:00 +26°C° 0 mm 3 mps 756 mmHg 69%
    Show more